Location: Valasske Mezirici
(49.4670°N, 17.9670°E)
Time: 14:42:40
(UTC+02:00)

ISS - Visible Passes

Search period start: 25 May 2018 00:00
Search period end: 04 June 2018 00:00
Orbit: 402 x 407 km, 51.6° (Epoch: 25 May)

Date Brightness Start Highest point End Pass type
(mag) Time Alt. Az. Time Alt. Az. Time Alt. Az.
25 May -3.6 00:31:00 10° WNW 00:34:16 68° N 00:35:43 29° E visible
25 May -1.6 02:07:35 10° W 02:08:18 15° W 02:08:18 15° W visible
25 May -3.6 22:02:03 10° W 22:05:19 74° NNW 22:08:35 10° ENE visible
25 May -3.3 23:38:46 10° WNW 23:42:01 58° N 23:44:38 14° E visible
26 May -2.6 01:15:19 10° WNW 01:17:14 31° W 01:17:14 31° W visible
26 May -3.2 22:46:30 10° W 22:49:44 56° N 22:52:57 10° E visible
27 May -4.0 00:23:05 10° WNW 00:26:22 85° SSW 00:26:25 84° SSE visible
27 May -3.2 21:54:11 10° W 21:57:26 59° N 22:00:41 10° ENE visible
27 May -3.7 23:30:51 10° WNW 23:34:07 73° NNE 23:35:41 28° E visible
28 May -1.6 01:07:28 10° W 01:08:19 16° W 01:08:19 16° W visible
28 May -3.3 22:38:35 10° WNW 22:41:50 61° N 22:45:01 10° E visible
29 May -3.2 00:15:08 10° WNW 00:17:38 42° WSW 00:17:38 42° WSW visible
29 May -3.1 21:46:17 10° WNW 21:49:31 56° N 21:52:45 10° E visible
29 May -4.0 23:22:51 10° WNW 23:26:07 76° SSW 23:27:01 44° SE visible
30 May -3.8 22:30:34 10° WNW 22:33:51 80° NNE 22:36:24 16° ESE visible
31 May -2.2 00:07:16 10° W 00:09:02 22° WSW 00:09:02 22° WSW visible
31 May -3.4 21:38:16 10° WNW 21:41:33 64° N 21:44:48 10° E visible
31 May -3.4 23:14:50 10° WNW 23:17:59 43° SSW 23:18:27 40° S visible
01 Jun -3.8 22:22:30 10° WNW 22:25:45 67° SSW 22:27:53 19° SE visible
01 Jun -1.4 23:59:48 10° W 00:00:31 13° WSW 00:00:31 13° WSW visible
02 Jun -3.8 21:30:11 10° WNW 21:33:28 87° NNE 21:36:45 10° ESE visible
02 Jun -2.5 23:06:58 10° W 23:09:40 24° SW 23:09:59 23° SSW visible
03 Jun -3.0 22:14:27 10° W 22:17:31 37° SSW 22:19:28 18° SSE visible
